#timestamp,LO_Frequency,Hit,StdDev 
1703754015.3,286046999.2,N
1703754035.2,286046999.6,N
1703754055.0,286046998.3,N
1703754055.9,286046998.3,N
1703754075.8,286046996.6,N
1703754095.6,286046999.6,N
1703754115.4,286046997.8,N
1703754135.3,286046999.1,N
1703754155.1,286046999.3,N
1703754175.8,286047001.2,N
1703754195.7,286046999.7,N
1703754215.5,286047000.1,N
1703754235.4,286047000.2,N
1703754255.2,286047000.8,N
1703754275.0,286046999.9,N
1703754275.9,286046999.9,N
1703754295.8,286047000.3,N
1703754315.6,286047000.0,N
1703754335.5,286047004.3,Y
1703754355.3,286047003.8,P
1703754375.1,286047003.2,N
1703754395.9,286047004.4,N
1703754415.7,286047003.1,N
1703754435.6,286047005.7,Y
1703754455.4,286047002.1,P
1703754475.2,286047001.9,P
1703754495.1,286047001.9,P
1703754496.0,286047001.9,Y
1703754515.8,286047002.1,P
1703754535.6,286047002.4,P
1703754555.5,286047000.0,N
1703754575.3,286046998.2,N
1703754595.2,286047000.4,N
1703754615.9,286047001.0,N
1703754635.7,286047000.8,N
1703754655.6,286047000.4,N
1703754675.4,286047001.1,N
1703754695.2,286047001.0,N
1703754715.1,286047000.5,N
1703754716.0,286047000.5,N
1703754735.8,286047000.4,N
1703754755.7,286047000.1,N
1703754775.5,286047000.3,N
1703754795.3,286047002.8,N
1703754815.2,286047002.4,N
1703754835.0,286047001.8,N
1703754835.9,286047001.8,N
1703754855.8,286047004.0,Y
1703754875.6,286047001.7,P
1703754895.4,286047001.9,P
1703754915.3,286046999.9,N
1703754935.1,286047001.6,N
1703754955.8,286047004.0,Y
1703754975.7,286047001.9,P
1703754995.5,286046999.8,N
1703755015.4,286047002.7,P
1703755035.2,286046999.8,N
1703755055.0,286047000.4,N
1703755055.9,286047000.4,N
1703755075.8,286047000.2,N
1703755095.6,286046999.9,N
1703755115.4,286047002.4,N
1703755135.3,286047002.6,N
1703755155.1,286047001.3,N
1703755175.9,286047002.0,N
1703755195.7,286047002.3,N
1703755215.5,286047002.8,N
1703755235.4,286047000.1,N
1703755255.2,286047000.0,N
1703755275.0,286046999.8,N
1703755275.9,286046999.8,N
1703755295.8,286047000.9,N
1703755315.6,286047000.0,N
1703755335.5,286047000.1,N
1703755355.3,286046998.1,N
1703755375.1,286047001.0,N
1703755395.9,286047001.2,N
1703755415.7,286047001.0,N
1703755435.5,286046999.7,N
1703755455.4,286047000.1,N
1703755475.2,286047002.1,N
1703755495.1,286047001.8,N
1703755496.0,286047001.8,N
1703755515.8,286047004.4,Y
1703755535.6,286047001.5,P
1703755555.5,286047002.2,P
1703755575.3,286047004.0,P
1703755595.2,286047003.1,N
1703755615.9,286047003.1,N
1703755635.7,286047001.3,N
1703755655.6,286047001.4,N
1703755675.4,286047001.5,N
1703755695.2,286047001.9,N
1703755715.1,286047003.2,Y
1703755716.0,286047003.2,P
1703755735.8,286046999.9,N
1703755755.7,286047002.3,N
1703755775.5,286047000.1,N
1703755795.3,286047002.7,N
1703755815.2,286047002.1,N
1703755835.0,286047002.6,N
1703755835.9,286047002.6,N
1703755855.8,286047002.6,N
1703755875.6,286047002.5,N
1703755895.4,286047002.3,N
1703755915.3,286047000.6,N
1703755935.1,286046999.8,N
1703755955.8,286047000.4,N
1703755975.7,286047000.7,N
1703755995.5,286047000.0,N
1703756015.4,286046999.7,N
1703756035.2,286047000.4,N
1703756055.0,286046998.1,N
1703756055.9,286046998.1,N
1703756075.8,286047000.6,N
1703756095.6,286046998.6,N
1703756115.4,286046998.1,N
1703756135.3,286047001.2,N
1703756155.1,286047000.3,N
1703756175.9,286047000.5,N
1703756195.7,286047001.9,N
1703756215.5,286046999.9,N
1703756235.4,286047002.4,N
1703756255.2,286047001.4,N
1703756275.0,286047004.1,N
1703756276.0,286047004.1,N
1703756295.8,286047001.8,N
1703756315.6,286047002.2,N
1703756335.5,286047001.4,N
1703756355.3,286047003.9,N
1703756375.2,286047003.1,N
1703756395.9,286047003.2,N
1703756415.7,286047003.8,N
1703756435.6,286047004.1,N
1703756455.4,286047003.8,N
1703756475.2,286047006.0,Y
1703756495.1,286047001.5,P
1703756496.0,286047001.5,P
1703756515.8,286047001.4,P
1703756535.7,286047001.9,Y
1703756555.5,286047000.7,P
1703756575.3,286047000.9,N
1703756595.2,286047000.7,N
1703756615.0,286046998.2,Y
1703756615.9,286046998.2,P
1703756635.8,286046999.2,N
1703756655.6,286046997.0,N
1703756675.4,286046996.6,N
1703756695.3,286046996.6,N
1703756715.1,286047001.1,N
1703756735.9,286046999.0,N
1703756755.7,286046999.2,N
1703756775.5,286046999.2,N
1703756795.4,286046997.0,N
1703756815.2,286046999.0,N
1703756835.0,286047000.8,N
1703756835.9,286047000.8,N
1703756855.8,286046998.7,N
1703756875.6,286046996.7,N
1703756895.5,286046997.0,N
1703756915.3,286046999.0,N
1703756935.1,286046998.7,N
1703756955.9,286046998.6,N
1703756975.8,286046999.0,N
1703756995.6,286046998.7,N
1703757015.4,286046998.2,N
1703757035.3,286046999.0,N
1703757055.1,286046999.0,N
1703757075.8,286046996.7,N
1703757095.7,286046999.4,N
1703757115.5,286046999.5,N
1703757135.4,286046998.0,N
1703757155.2,286046998.0,N
1703757175.0,286046996.9,N
1703757175.9,286046996.9,N
1703757195.8,286046996.6,N
1703757215.6,286046996.9,N
1703757235.4,286046999.1,N
1703757255.3,286046999.4,N
1703757275.1,286046996.6,N
1703757295.9,286046997.0,N
1703757315.7,286046999.1,N
1703757335.6,286046998.9,N
1703757355.4,286047001.1,N
1703757375.2,286046996.9,N
1703757395.1,286046997.9,N
1703757396.0,286046997.9,N
1703757415.8,286046997.9,N
1703757435.6,286046998.8,N
1703757455.5,286046998.7,N
1703757475.3,286047000.9,N
1703757495.2,286047000.5,N
1703757515.9,286047000.6,N
1703757535.7,286047001.0,N
1703757555.6,286046999.9,N
1703757575.4,286047001.3,N
1703757595.3,286047002.0,N
